STARLINK-4531 (53425 NORAD) Tracking and Keplerian Element Data

This shows tracking and keplerian element data for the satellite.

Feedback or suggestion? Click here.




ElementValue
Catalog53425
NameSTARLINK-4531
Epoch Orbit1670
Epoch Day324.6960036
Epoch Year2022
RAAN123.542
Inclination53.2201
Eccentricity0.0001433
Argument of Perigee54.7806
Mean Anonmoly305.332
Mean Motion15.08831384
Decay Rate-1.353E-05
L11 53425U 22097AP 22324.69600360 -.00001353 00000+0 -66921-4 0 9993
L22 53425 53.2201 123.5420 0001433 54.7806 305.3320 15.08831384 16703



Live tracking and technical data element details for STARLINK-4531 (NORAD 53425). STARLINK-4531 can be tracked NOW for your location showing map with azimuth and elevation plus other details from your city location.







IsCatalogInMostPopularTable: catalog: 53425, numindb: 5
Update: records affected: 1



GetName: 53425 STARLINK-4531

Hit Count: updated at: Thu, 08 Dec 2022 20:32:39 GMT